Погода в Тайне

Россия / Забайкальский край     51°35′13″N   118°27′18″E
темп.,
°C
ветер,
м/с
пор.,
м/с
влажн.,
%
обл.,
%
осадки,
мм/ч
давл.,
гПа
погр.,
м
6 марта, сб
сб600:00−28ююз22940 0.0 104319
03:00−29ю22910 0.0 104220
06:00−28ю23790 0.0 104124
09:00−24ю238627 0.0 103897
12:00−16ю248332 0.0 1034340
15:00−14ю358766 0.0 1029481
18:00−17ю3691100 0.0 1028358
21:00−21юз2297100 0.0 102821
7 марта, вс
вс700:00−22юз229987 0.0 102720
03:00−21юз129988 0.1 102821
06:00−21юз12100100 0.1 102820
09:00−19зюз119896 0.1 103044
12:00−11зсз248434 0.0 1027351
15:00−7з137618 0.0 1026515
18:00−8ю12850 0.0 102524
21:00−12ю33880 0.0 102736
8 марта, пн
пн800:00−14ю33910 0.0 102646
03:00−15ю33900 0.0 102543
06:00−15ю33920 0.0 102348
09:00−12ю349143 0.0 1021130
12:00−6ююз2585100 0.0 1018297
15:00−2з488485 0.0 10151039
18:00−4з499181 0.1 1014697
21:00−6юз2129791 0.8 1015688
9 марта, вт
вт900:00−7сз51283100 1.4 10151164
03:00−12зсз61480100 1.5 1019619
06:00−16сз3168229 0.0 1025543
09:00−16зсз298615 0.0 1029334
12:00−10зсз35750 0.0 1029614
15:00−8з35730 0.0 1029641
18:00−9зюз118353 0.0 102821
21:00−12ю238476 0.0 102841
10 марта, ср
ср1000:00−13ю3484100 0.0 102780
03:00−13ю3679100 0.0 1025134
06:00−14ю2385100 0.0 102374
09:00−13ююз2287100 0.0 102379
12:00−6з269096 0.0 1021520
15:00−4зсз589093 0.1 1020831
18:00−6сз398567 0.1 1022536
21:00−12зсз228948 0.1 102621